Back to catalog

SKYNET 4A R/B

PAM-D2

AliveHEO
NORAD 20404·ROCKET BODY·🇺🇸 United States

Launched Jan 1, 1990 from Cape Canaveral Space Force Station

Loading…

Next Passes (next 24 hours)

TLE

FreshSource: Space-Track

Epoch: Sep 13, 2026, 16:45 UTC

1 20404U 90001D   26256.69793239  .00001142  00000-0  12120-2 0  9995
2 20404  21.5772  63.6301 7022801 101.0678 338.8442  2.56667915313891

Track SKYNET 4A R/B in real time with AllMySat

Download on the App Store